Time,TemperatureF,DewpointF,PressureIn,WindDirection,WindDirectionDegrees,WindSpeedMPH,WindSpeedGustMPH,Humidity,HourlyPrecipIn,Conditions,Clouds,dailyrainin,SoftwareType,DateUTC
2013-06-04 00:01:00,66.6,63.8,29.97,SW,225,0.0,0.7,91,0.00,,,0.00,pywws,2013-06-03 14:01:00,
2013-06-04 00:11:00,66.2,64.4,29.97,SW,225,0.0,0.7,94,0.00,,,0.00,pywws,2013-06-03 14:11:00,
2013-06-04 00:21:00,66.4,64.6,29.97,NW,315,0.0,0.0,94,0.00,,,0.00,pywws,2013-06-03 14:21:00,
2013-06-04 00:32:00,67.3,65.5,29.96,SE,135,0.0,1.6,94,0.00,,,0.00,pywws,2013-06-03 14:32:00,
2013-06-04 00:41:00,67.6,65.5,29.96,South,180,0.0,0.7,93,0.00,,,0.00,pywws,2013-06-03 14:41:00,
2013-06-04 00:51:00,68.0,65.3,29.96,NE,45,0.0,1.6,91,0.00,,,0.00,pywws,2013-06-03 14:51:00,
2013-06-04 01:01:00,68.4,65.6,29.96,East,90,0.0,0.7,91,0.00,,,0.00,pywws,2013-06-03 15:01:00,
2013-06-04 01:11:00,68.4,65.6,29.96,NW,315,0.0,0.7,91,0.00,,,0.00,pywws,2013-06-03 15:11:00,
2013-06-04 01:21:00,68.4,65.6,29.96,North,0,0.7,1.6,91,0.00,,,0.00,pywws,2013-06-03 15:21:00,
2013-06-04 01:31:00,68.7,66.3,29.95,SW,225,0.0,0.7,92,0.00,,,0.00,pywws,2013-06-03 15:31:00,
2013-06-04 01:41:00,69.3,66.8,29.94,South,180,0.7,1.6,92,0.00,,,0.00,pywws,2013-06-03 15:41:00,
2013-06-04 01:52:00,70.0,67.2,29.94,West,270,1.6,3.1,91,0.00,,,0.00,pywws,2013-06-03 15:52:00,
2013-06-04 02:01:00,70.5,67.1,29.94,SE,135,1.6,4.5,89,0.00,,,0.00,pywws,2013-06-03 16:01:00,
2013-06-04 02:11:00,71.6,67.2,29.93,West,270,3.1,6.9,86,0.00,,,0.00,pywws,2013-06-03 16:11:00,
2013-06-04 02:21:00,72.3,67.2,29.93,NE,45,2.2,5.4,84,0.00,,,0.00,pywws,2013-06-03 16:21:00,
2013-06-04 02:31:00,72.3,66.9,29.92,North,0,2.2,4.5,83,0.00,,,0.00,pywws,2013-06-03 16:31:00,
2013-06-04 02:41:00,72.7,67.2,29.93,North,0,0.0,0.7,83,0.00,,,0.00,pywws,2013-06-03 16:41:00,
2013-06-04 02:51:00,72.5,67.0,29.92,NE,45,0.7,1.6,83,0.00,,,0.00,pywws,2013-06-03 16:51:00,
2013-06-04 03:01:00,72.5,67.0,29.92,North,0,3.1,5.4,83,0.00,,,0.00,pywws,2013-06-03 17:01:00,
2013-06-04 03:11:00,72.7,67.2,29.92,NE,45,3.8,6.0,83,0.00,,,0.00,pywws,2013-06-03 17:11:00,
2013-06-04 03:21:00,72.7,67.2,29.92,North,0,4.5,8.3,83,0.00,,,0.00,pywws,2013-06-03 17:21:00,
2013-06-04 03:31:00,72.5,67.4,29.92,NE,45,6.9,11.4,84,0.00,,,0.00,pywws,2013-06-03 17:31:00,
2013-06-04 03:41:00,72.1,67.4,29.93,NE,45,6.9,9.8,85,0.00,,,0.00,pywws,2013-06-03 17:41:00,
2013-06-04 03:51:00,72.0,67.2,29.92,SW,225,3.1,5.4,85,0.00,,,0.00,pywws,2013-06-03 17:51:00,
2013-06-04 04:01:00,72.0,67.2,29.92,North,0,6.0,8.3,85,0.00,,,0.00,pywws,2013-06-03 18:01:00,
2013-06-04 04:11:00,72.0,66.9,29.92,NW,315,4.5,6.9,84,0.00,,,0.00,pywws,2013-06-03 18:11:00,
2013-06-04 04:21:00,72.3,66.9,29.93,North,0,3.8,8.3,83,0.00,,,0.00,pywws,2013-06-03 18:21:00,
2013-06-04 04:31:00,72.3,66.9,29.92,NE,45,6.0,9.2,83,0.00,,,0.00,pywws,2013-06-03 18:31:00,
2013-06-04 04:41:00,72.3,66.9,29.93,NE,45,6.0,7.6,83,0.00,,,0.00,pywws,2013-06-03 18:41:00,
2013-06-04 04:51:00,72.1,66.7,29.93,NE,45,6.9,8.3,83,0.00,,,0.00,pywws,2013-06-03 18:51:00,
2013-06-04 05:01:00,72.0,66.2,29.93,West,270,1.6,3.8,82,0.00,,,0.00,pywws,2013-06-03 19:01:00,
2013-06-04 05:11:00,72.3,66.5,29.93,NE,45,6.9,15.2,82,0.00,,,0.00,pywws,2013-06-03 19:11:00,
2013-06-04 05:21:00,72.1,66.3,29.93,NE,45,10.7,13.6,82,0.00,,,0.00,pywws,2013-06-03 19:21:00,
2013-06-04 05:32:00,72.1,66.3,29.94,NE,45,5.4,8.3,82,0.00,,,0.00,pywws,2013-06-03 19:32:00,
2013-06-04 05:41:00,72.1,66.3,29.95,NE,45,6.9,10.7,82,0.00,,,0.00,pywws,2013-06-03 19:41:00,
2013-06-04 05:51:00,72.1,66.3,29.95,NNE,22,4.5,10.7,82,0.00,,,0.00,pywws,2013-06-03 19:51:00,
2013-06-04 06:01:00,72.0,65.8,29.96,NE,45,5.4,12.1,81,0.00,,,0.00,pywws,2013-06-03 20:01:00,
2013-06-04 06:11:00,72.0,65.8,29.96,ESE,112,3.8,5.4,81,0.00,,,0.00,pywws,2013-06-03 20:11:00,
2013-06-04 06:21:00,71.8,66.0,29.96,NNE,22,6.9,9.8,82,0.00,,,0.00,pywws,2013-06-03 20:21:00,
2013-06-04 06:32:00,71.6,65.5,29.97,NE,45,8.3,11.4,81,0.00,,,0.00,pywws,2013-06-03 20:32:00,
2013-06-04 06:41:00,71.6,65.5,29.98,NE,45,6.0,11.4,81,0.00,,,0.00,pywws,2013-06-03 20:41:00,
2013-06-04 06:51:00,71.4,65.6,29.99,South,180,3.8,6.9,82,0.00,,,0.00,pywws,2013-06-03 20:51:00,
2013-06-04 07:01:00,71.4,65.3,29.99,NE,45,0.7,2.2,81,0.00,,,0.00,pywws,2013-06-03 21:01:00,
2013-06-04 07:11:00,71.4,65.6,29.99,East,90,0.7,3.8,82,0.00,,,0.00,pywws,2013-06-03 21:11:00,
2013-06-04 07:21:00,71.6,64.7,29.99,East,90,1.6,3.1,79,0.00,,,0.00,pywws,2013-06-03 21:21:00,
2013-06-04 07:31:00,71.8,64.9,30.00,NE,45,8.3,9.8,79,0.00,,,0.00,pywws,2013-06-03 21:31:00,
2013-06-04 07:41:00,72.0,64.7,30.01,ENE,68,5.4,6.9,78,0.00,,,0.00,pywws,2013-06-03 21:41:00,
2013-06-04 07:51:00,72.1,64.9,30.01,NNE,22,6.9,8.3,78,0.00,,,0.00,pywws,2013-06-03 21:51:00,
2013-06-04 08:01:00,72.0,64.3,30.01,East,90,1.6,2.2,77,0.00,,,0.00,pywws,2013-06-03 22:01:00,
2013-06-04 08:11:00,72.1,64.5,30.01,NE,45,6.9,8.3,77,0.00,,,0.00,pywws,2013-06-03 22:11:00,
2013-06-04 08:21:00,72.7,65.0,30.02,NE,45,6.9,9.8,77,0.00,,,0.00,pywws,2013-06-03 22:21:00,
2013-06-04 08:31:00,72.9,64.8,30.02,East,90,5.4,7.6,76,0.00,,,0.00,pywws,2013-06-03 22:31:00,
2013-06-04 08:41:00,72.9,64.8,30.02,North,0,2.2,4.5,76,0.00,,,0.00,pywws,2013-06-03 22:41:00,
2013-06-04 08:51:00,73.4,65.4,30.02,NE,45,5.4,9.2,76,0.00,,,0.00,pywws,2013-06-03 22:51:00,
2013-06-04 09:01:00,74.1,65.7,30.02,NE,45,8.3,11.4,75,0.00,,,0.00,pywws,2013-06-03 23:01:00,
2013-06-04 09:11:00,74.5,66.0,30.03,NE,45,3.8,6.9,75,0.00,,,0.00,pywws,2013-06-03 23:11:00,
2013-06-04 09:21:00,74.5,66.0,30.03,NE,45,3.1,6.0,75,0.00,,,0.00,pywws,2013-06-03 23:21:00,
2013-06-04 09:31:00,75.4,66.1,30.02,NE,45,3.1,6.9,73,0.00,,,0.00,pywws,2013-06-03 23:31:00,
2013-06-04 09:41:00,77.0,66.4,30.03,NE,45,4.5,7.6,70,0.00,,,0.00,pywws,2013-06-03 23:41:00,
2013-06-04 09:51:00,77.0,66.4,30.03,NE,45,3.8,6.0,70,0.00,,,0.00,pywws,2013-06-03 23:51:00,
2013-06-04 10:01:00,77.2,66.2,30.02,North,0,4.5,9.2,69,0.00,,,0.00,pywws,2013-06-04 00:01:00,
2013-06-04 10:11:00,76.8,66.3,30.02,East,90,6.9,9.8,70,0.00,,,0.00,pywws,2013-06-04 00:11:00,
2013-06-04 10:21:00,78.3,66.4,30.02,NE,45,4.5,10.7,67,0.00,,,0.00,pywws,2013-06-04 00:21:00,
2013-06-04 10:31:00,79.2,66.4,30.02,NE,45,3.1,6.0,65,0.00,,,0.00,pywws,2013-06-04 00:31:00,
2013-06-04 10:41:00,77.2,66.2,30.02,NE,45,8.3,13.0,69,0.00,,,0.00,pywws,2013-06-04 00:41:00,
2013-06-04 10:51:00,78.6,66.7,30.02,NE,45,6.0,10.7,67,0.00,,,0.00,pywws,2013-06-04 00:51:00,
2013-06-04 11:01:00,78.4,66.1,30.01,North,0,2.2,3.8,66,0.00,,,0.00,pywws,2013-06-04 01:01:00,
2013-06-04 11:11:00,78.8,66.9,30.02,North,0,6.0,13.0,67,0.00,,,0.00,pywws,2013-06-04 01:11:00,
2013-06-04 11:21:00,79.5,67.1,30.01,NE,45,5.4,9.8,66,0.00,,,0.00,pywws,2013-06-04 01:21:00,
2013-06-04 11:31:00,78.3,66.4,30.00,NE,45,4.5,6.9,67,0.00,,,0.00,pywws,2013-06-04 01:31:00,
2013-06-04 11:41:00,78.8,66.9,30.00,NE,45,4.5,9.2,67,0.00,,,0.00,pywws,2013-06-04 01:41:00,
2013-06-04 11:51:00,78.3,66.4,30.00,North,0,9.2,16.8,67,0.00,,,0.00,pywws,2013-06-04 01:51:00,
2013-06-04 12:01:00,79.9,67.0,29.99,NE,45,6.0,8.3,65,0.00,,,0.00,pywws,2013-06-04 02:01:00,
2013-06-04 12:11:00,80.8,67.4,29.99,East,90,7.6,13.6,64,0.00,,,0.00,pywws,2013-06-04 02:11:00,
2013-06-04 12:21:00,80.8,67.0,29.98,SE,135,4.5,7.6,63,0.00,,,0.00,pywws,2013-06-04 02:21:00,
2013-06-04 12:31:00,81.5,67.7,29.98,NE,45,1.6,4.5,63,0.00,,,0.00,pywws,2013-06-04 02:31:00,
2013-06-04 12:41:00,81.7,67.8,29.97,NE,45,3.1,10.7,63,0.00,,,0.00,pywws,2013-06-04 02:41:00,
2013-06-04 12:51:00,80.6,66.8,29.97,NE,45,10.7,13.0,63,0.00,,,0.00,pywws,2013-06-04 02:51:00,
2013-06-04 13:01:00,81.9,67.5,29.96,SW,225,6.9,9.2,62,0.00,,,0.00,pywws,2013-06-04 03:01:00,
2013-06-04 13:11:00,79.0,66.2,29.95,North,0,5.4,12.1,65,0.00,,,0.00,pywws,2013-06-04 03:11:00,
2013-06-04 13:21:00,79.7,66.9,29.95,East,90,2.2,3.8,65,0.00,,,0.00,pywws,2013-06-04 03:21:00,
2013-06-04 13:31:00,82.0,67.7,29.95,East,90,6.0,10.7,62,0.00,,,0.00,pywws,2013-06-04 03:31:00,
2013-06-04 13:41:00,81.3,67.0,29.94,North,0,5.4,8.3,62,0.00,,,0.00,pywws,2013-06-04 03:41:00,
2013-06-04 13:51:00,80.6,66.8,29.94,East,90,5.4,9.8,63,0.00,,,0.00,pywws,2013-06-04 03:51:00,
2013-06-04 14:01:00,82.0,67.7,29.93,East,90,6.0,11.4,62,0.00,,,0.00,pywws,2013-06-04 04:01:00,
2013-06-04 14:02:00,82.4,67.1,29.93,East,90,4.5,7.6,60,0.00,,,0.00,pywws,2013-06-04 04:02:00,
2013-06-04 14:03:00,82.6,67.3,29.93,WNW,292,3.8,5.4,60,0.00,,,0.00,pywws,2013-06-04 04:03:00,
2013-06-04 14:11:00,81.5,67.7,29.93,NE,45,4.5,6.9,63,0.00,,,0.00,pywws,2013-06-04 04:11:00,
2013-06-04 14:15:00,80.2,66.9,29.93,NNE,22,5.4,11.4,64,0.00,,,0.00,pywws,2013-06-04 04:15:00,
2013-06-04 14:21:00,81.0,67.2,29.92,NE,45,4.5,6.0,63,0.00,,,0.00,pywws,2013-06-04 04:21:00,
2013-06-04 14:31:00,79.5,67.1,29.94,North,0,6.0,9.8,66,0.00,,,0.00,pywws,2013-06-04 04:31:00,
2013-06-04 14:41:00,79.2,66.8,29.94,WSW,248,6.0,9.2,66,0.00,,,0.00,pywws,2013-06-04 04:41:00,
2013-06-04 14:52:00,77.5,67.0,29.94,NE,45,6.9,10.7,70,0.00,,,0.00,pywws,2013-06-04 04:52:00,
2013-06-04 15:01:00,75.0,66.5,29.94,NE,45,5.4,8.3,75,0.00,,,0.00,pywws,2013-06-04 05:01:00,
2013-06-04 15:11:00,74.7,66.6,29.94,NE,45,6.9,12.1,76,0.00,,,0.00,pywws,2013-06-04 05:11:00,
2013-06-04 15:21:00,77.2,67.4,29.93,SW,225,3.1,6.0,72,0.00,,,0.00,pywws,2013-06-04 05:21:00,
2013-06-04 15:31:00,77.2,66.6,29.93,North,0,6.9,10.7,70,0.00,,,0.00,pywws,2013-06-04 05:31:00,
2013-06-04 15:41:00,77.9,66.9,29.93,NE,45,3.1,7.6,69,0.00,,,0.00,pywws,2013-06-04 05:41:00,
2013-06-04 15:51:00,78.3,66.8,29.93,NE,45,2.2,4.5,68,0.00,,,0.00,pywws,2013-06-04 05:51:00,
2013-06-04 16:01:00,78.8,66.9,29.93,NE,45,5.4,7.6,67,0.00,,,0.00,pywws,2013-06-04 06:01:00,
2013-06-04 16:11:00,77.9,66.5,29.93,NE,45,4.5,9.2,68,0.00,,,0.00,pywws,2013-06-04 06:11:00,
2013-06-04 16:21:00,77.9,66.9,29.93,NE,45,5.4,9.8,69,0.00,,,0.00,pywws,2013-06-04 06:21:00,
2013-06-04 16:31:00,78.6,67.2,29.93,NE,45,3.1,6.0,68,0.00,,,0.00,pywws,2013-06-04 06:31:00,
2013-06-04 16:41:00,77.7,66.7,29.93,NE,45,7.6,10.7,69,0.00,,,0.00,pywws,2013-06-04 06:41:00,
2013-06-04 16:51:00,75.7,66.1,29.93,NE,45,6.9,9.8,72,0.00,,,0.00,pywws,2013-06-04 06:51:00,
2013-06-04 17:01:00,74.7,66.2,29.94,NE,45,3.8,6.0,75,0.00,,,0.00,pywws,2013-06-04 07:01:00,
2013-06-04 17:11:00,73.9,65.5,29.95,NE,45,6.0,9.8,75,0.00,,,0.00,pywws,2013-06-04 07:11:00,
2013-06-04 17:21:00,73.6,65.5,29.96,NE,45,2.2,4.5,76,0.00,,,0.00,pywws,2013-06-04 07:21:00,
2013-06-04 17:31:00,73.0,65.0,29.97,NE,45,6.9,8.3,76,0.00,,,0.00,pywws,2013-06-04 07:31:00,
2013-06-04 17:41:00,72.3,65.4,29.97,North,0,3.1,4.5,79,0.00,,,0.00,pywws,2013-06-04 07:41:00,
2013-06-04 17:51:00,71.2,65.8,29.98,East,90,3.1,4.5,83,0.00,,,0.00,pywws,2013-06-04 07:51:00,
2013-06-04 18:01:00,69.8,65.4,29.99,East,90,3.8,5.4,86,0.00,,,0.00,pywws,2013-06-04 08:01:00,
2013-06-04 18:11:00,68.9,66.2,29.99,NE,45,3.1,5.4,91,0.04,,,0.04,pywws,2013-06-04 08:11:00,
2013-06-04 18:21:00,68.5,66.4,29.99,NE,45,2.2,4.5,93,0.04,,,0.04,pywws,2013-06-04 08:21:00,
2013-06-04 18:31:00,68.2,66.4,29.99,North,0,2.2,5.4,94,0.05,,,0.05,pywws,2013-06-04 08:31:00,
2013-06-04 18:41:00,68.4,66.9,29.99,NNE,22,1.6,2.2,95,0.05,,,0.05,pywws,2013-06-04 08:41:00,
2013-06-04 18:51:00,68.7,66.9,29.99,NE,45,2.2,4.5,94,0.05,,,0.05,pywws,2013-06-04 08:51:00,
2013-06-04 19:01:00,68.9,67.1,30.00,NE,45,5.4,8.3,94,0.05,,,0.05,pywws,2013-06-04 09:01:00,
2013-06-04 19:11:00,69.1,67.0,30.00,East,90,0.7,3.1,93,0.01,,,0.05,pywws,2013-06-04 09:11:00,
2013-06-04 19:21:00,69.6,67.2,30.00,NE,45,5.4,8.3,92,0.01,,,0.05,pywws,2013-06-04 09:21:00,
2013-06-04 19:31:00,69.8,66.4,30.00,East,90,2.2,4.5,89,0.00,,,0.05,pywws,2013-06-04 09:31:00,
2013-06-04 19:41:00,70.2,66.4,30.00,ENE,68,5.4,6.0,88,0.00,,,0.05,pywws,2013-06-04 09:41:00,
2013-06-04 19:51:00,69.6,66.6,30.01,NE,45,2.2,4.5,90,0.00,,,0.05,pywws,2013-06-04 09:51:00,
2013-06-04 20:01:00,69.4,66.7,30.01,NE,45,3.8,4.5,91,0.00,,,0.05,pywws,2013-06-04 10:01:00,
2013-06-04 20:11:00,69.8,66.4,30.01,NE,45,4.5,9.8,89,0.00,,,0.05,pywws,2013-06-04 10:11:00,
2013-06-04 20:21:00,70.2,66.4,30.01,NE,45,3.1,4.5,88,0.00,,,0.05,pywws,2013-06-04 10:21:00,
2013-06-04 20:31:00,70.0,66.3,30.01,North,0,4.5,5.4,88,0.01,,,0.06,pywws,2013-06-04 10:31:00,
2013-06-04 20:41:00,69.8,66.1,30.01,East,90,3.8,6.9,88,0.01,,,0.06,pywws,2013-06-04 10:41:00,
2013-06-04 20:51:00,70.3,65.9,30.01,North,0,5.4,6.9,86,0.01,,,0.06,pywws,2013-06-04 10:51:00,
2013-06-04 21:01:00,70.7,66.0,30.01,NE,45,4.5,7.6,85,0.01,,,0.06,pywws,2013-06-04 11:01:00,
2013-06-04 21:11:00,71.2,65.8,30.01,NE,45,3.1,4.5,83,0.01,,,0.06,pywws,2013-06-04 11:11:00,
2013-06-04 21:21:00,71.6,65.5,30.01,NE,45,5.4,6.9,81,0.01,,,0.06,pywws,2013-06-04 11:21:00,
2013-06-04 21:31:00,71.8,65.6,30.02,NE,45,1.6,3.8,81,0.00,,,0.06,pywws,2013-06-04 11:31:00,
2013-06-04 21:41:00,71.6,65.5,30.02,NE,45,5.4,7.6,81,0.00,,,0.06,pywws,2013-06-04 11:41:00,
2013-06-04 21:51:00,71.8,65.6,30.03,NE,45,3.1,4.5,81,0.00,,,0.06,pywws,2013-06-04 11:51:00,
2013-06-04 22:01:00,71.8,65.6,30.03,East,90,3.8,6.0,81,0.00,,,0.06,pywws,2013-06-04 12:01:00,
2013-06-04 22:11:00,71.8,65.6,30.03,NE,45,5.4,9.8,81,0.00,,,0.06,pywws,2013-06-04 12:11:00,
2013-06-04 22:21:00,71.6,65.5,30.03,NW,315,0.7,1.6,81,0.00,,,0.06,pywws,2013-06-04 12:21:00,
2013-06-04 22:31:00,70.5,65.8,30.04,North,0,0.7,2.2,85,0.00,,,0.06,pywws,2013-06-04 12:31:00,
2013-06-04 22:41:00,70.3,65.6,30.03,North,0,2.2,6.0,85,0.00,,,0.06,pywws,2013-06-04 12:41:00,
2013-06-04 22:51:00,70.9,65.8,30.03,NE,45,5.4,7.6,84,0.00,,,0.06,pywws,2013-06-04 12:51:00,
2013-06-04 23:01:00,70.7,66.0,30.03,SW,225,0.0,1.6,85,0.00,,,0.06,pywws,2013-06-04 13:01:00,
2013-06-04 23:11:00,69.6,66.6,30.03,North,0,2.2,4.5,90,0.00,,,0.06,pywws,2013-06-04 13:11:00,
2013-06-04 23:21:00,69.3,65.9,30.02,SE,135,0.7,3.1,89,0.00,,,0.06,pywws,2013-06-04 13:21:00,
2013-06-04 23:31:00,69.4,65.7,30.02,South,180,0.7,3.1,88,0.00,,,0.06,pywws,2013-06-04 13:31:00,
2013-06-04 23:41:00,69.6,65.2,30.02,NE,45,1.6,3.1,86,0.00,,,0.06,pywws,2013-06-04 13:41:00,
2013-06-04 23:51:00,70.2,65.4,30.02,North,0,0.0,1.6,85,0.00,,,0.06,pywws,2013-06-04 13:51:00,